Regional Weather Roundup
Issued by NWS

Current Version | Previous Version | Text Only | Print | Product List | Glossary On
Versions: 1 2 3 4 5 6 7 8 9 10 11 12 13 14 15 16 17 18 19 20 21 22 23 24 25 26 27 28 29 30 31 32 33 34 35 36 37 38 39 40 41 42 43 44 45 46 47 48 49 50
000
ASCA44 KEWX 220920
RWRMX

LATIN AMERICA AND CARIBBEAN REGIONAL WEATHER ROUNDUP
NATIONAL WEATHER SERVICE AUSTIN/SAN ANTONIO TX
400 AM CDT FRI AUG 22 2014

NOTE: "FAIR" INDICATED FEW OR NO CLOUDS BELOW 12,000 FEET WITH NO
SIGNIFICANT WEATHER AND/OR OBSTRUCTIONS TO VISIBILITY.

BAJA CALIFORNIA

CITY           SKY/WX    TMP DP  RH WIND       PRES   REMARKS
TIJUANA        CLOUDY    68  61  77 CALM      29.98S

NORTHWESTERN MEXICO

CITY           SKY/WX    TMP DP  RH WIND       PRES   REMARKS

NORTHEASTERN MEXICO

CITY           SKY/WX    TMP DP  RH WIND       PRES   REMARKS
MONTERREY      CLEAR     77  64  65 E14       30.01F
REYNOSA        CLEAR     77  72  83 S7        30.02F
CD. VICTORIA   CLEAR     75  70  83 SE12      30.05F

WESTERN MEXICO

CITY           SKY/WX    TMP DP  RH WIND       PRES   REMARKS
DEL BAJIO      MOCLDY    63  54  72 N8        30.31F
GUADALAJARA    MOCLDY    61  59  94 CALM      30.19F
MAZATLAN       MOCLDY    79  73  83 SE5       29.88R
P. VALLARTA    LGT RAIN  75  72  88 N5        29.95F
ZACATECAS      CLEAR     57  48  72 SE7       30.34

CENTRAL MEXICO

CITY           SKY/WX    TMP DP  RH WIND       PRES   REMARKS
MEXICO CITY    PTCLDY    57  46  67 NW9       30.35F
MORELIA        MOCLDY    59  57  94 CALM      30.25F
QUERETARO      PTCLDY    57  48  72 NE6       30.36S
S. LUIS POTOSI PTCLDY    59  50  72 E7        30.33F
TOLUCA         PTCLDY    50  45  81 E6        30.40F WCI  48

SOUTHERN MEXICO

CITY           SKY/WX    TMP DP  RH WIND       PRES   REMARKS
ACAPULCO       MOCLDY    77  73  88 NE7       29.86F

YUCATAN PENINSULA

CITY           SKY/WX    TMP DP  RH WIND       PRES   REMARKS
CANCUN         PTCLDY    79  77  94 NE2       29.98F
COZUMEL        PTCLDY    75  75 100 CALM      29.98F
MERIDA         PTCLDY    79  79 100 E5        29.99F
TAPACHULA      MOCLDY    75  72  88 CALM      29.92S

CENTRAL AMERICA

CITY           SKY/WX    TMP DP  RH WIND       PRES   REMARKS

CARIBBEAN

CITY           SKY/WX    TMP DP  RH WIND       PRES   REMARKS
ARUBA          PTCLDY    81  77  89 VRB3      29.83S
KINGSTON       PTCLDY    82  73  74 NE3       29.89S
NASSAU         PTCLDY    81  75  83 CALM      30.06S
SAN JUAN       LGT RAIN  79  79 100 CALM      29.84F
SANTO DOMINGO  PTCLDY    77  73  88 NE7       29.89S
ST. CROIX      LGT RAIN  81  75  83 NE8       29.83S
ST. MAARTEN    LGT RAIN  81  75  83 SE22      29.83S
ST. THOMAS     LGT RAIN  81  75  83 E9        29.83S

$$



USA.gov is the U.S. government's official web portal to all federal, state and local government web resources and services.